User: anonymous   Login
Location: *
(2.5500°S, 65.9667°W)
Time: 12:08:17
(UTC+00:00)
Language:

Cosmos 2084 - Orbit

View from above orbital plane
View from above orbital plane
View from above satellite
View from above satellite

Ground track
Ground track

The orbit data is extracted from the following two-line orbital elements,

1 20663U 90055A   22276.20687748  .00003776  00000-0  32521-3 0  9996
2 20663  62.7920 249.3007 0126088  60.8211 300.5430 14.93178722748393
Epoch (UTC): 03 October 2022 04:57:54
Eccentricity: 0.0126088
inclination: 62.7920°
perigee height: 500 km
apogee height: 676 km
right ascension of ascending node: 249.3007°
argument of perigee: 60.8211°
revolutions per day: 14.93178722
mean anomaly at epoch: 300.5430°
orbit number at epoch: 74839

The dashed part of the orbit path shows where the satellite is in the earth's shadow,  

DLR